GUANICA PR US current weather conditions

sailwx.info

Air temperature 25.0° C
Dewpoint 20.0° C

Last reported at 2018-Nov-22 09:09 UTC.
Time now 2018-Nov-22 10:26 UTC

Location: N 17°57' W 066°53'.
View on Google Maps.

See reports from other nearby stations

  
Tides and Currents Weather Stations Pressure Air Temp Water Temp Dewpoint Dewpoint Depression Visibility Wind Speed Wind Dir Waves Ship Positions
date/time (UTC)wind fromknots sea level pressurealtimeterstation pressurevisibilityair tempwater tempwave heightnotes
2018-Nov-22 09:09 25.0
2018-Nov-22 08:09 25.6
2018-Nov-22 07:09 25.6
2018-Nov-22 06:09 25.6
2018-Nov-22 05:09 051 5 gusting 11 25.6
2018-Nov-22 04:09 058 6 gusting 10 26.1
2018-Nov-22 03:09 065 5 gusting 11 26.1
2018-Nov-22 02:09 060 5 gusting 8 26.1
2018-Nov-22 01:09 057 4 gusting 7 26.1
2018-Nov-22 00:09 064 5 gusting 13 26.7
2018-Nov-21 23:09 078 6 gusting 12 27.2
2018-Nov-21 22:09 081 6 gusting 14 27.2
2018-Nov-21 21:09 089 6 gusting 15 28.9
2018-Nov-21 20:09 096 6 gusting 14 30.6
2018-Nov-21 19:09 097 6 gusting 13 31.1
2018-Nov-21 18:09 096 6 gusting 15 31.1
2018-Nov-21 17:09 106 6 gusting 15 31.1
2018-Nov-21 16:09 093 7 gusting 19 31.7
2018-Nov-21 15:09 092 7 gusting 19 31.1
2018-Nov-21 14:09 095 8 gusting 17 30.6
2018-Nov-21 13:09 078 8 gusting 18 29.4
2018-Nov-21 12:09 075 7 gusting 13 28.3
2018-Nov-21 11:09 075 4 gusting 13 25.6
2018-Nov-21 10:09 083 6 gusting 12 25.6
2018-Nov-21 09:09 070 5 gusting 10 25.6
2018-Nov-21 08:09 069 3 gusting 6 25.0
2018-Nov-21 07:09 075 2 gusting 7 26.1
2018-Nov-21 06:09 068 4 gusting 10 26.1
2018-Nov-21 05:09 062 5 gusting 11 26.1
2018-Nov-21 04:09 068 2 gusting 11 25.6
2018-Nov-21 03:09 065 3 gusting 7 25.6
2018-Nov-21 02:09 018 2 gusting 4 25.6
2018-Nov-21 01:09 037 1 gusting 4 25.6
2018-Nov-21 00:09 045 2 gusting 5 26.1
2018-Nov-20 23:09 064 3 gusting 6 26.7
2018-Nov-20 22:09 066 3 gusting 7 27.2
2018-Nov-20 21:09 095 4 gusting 10 29.4
2018-Nov-20 20:09 107 5 gusting 11 30.6
2018-Nov-20 19:09 093 6 gusting 13 31.1
2018-Nov-20 18:09 091 6 gusting 14 31.7
2018-Nov-20 17:09 086 6 gusting 17 31.7
2018-Nov-20 16:09 083 8 gusting 19 31.1
2018-Nov-20 15:09 090 8 gusting 20 31.1
2018-Nov-20 14:09 092 8 gusting 17 30.0
2018-Nov-20 13:09 074 7 gusting 14 29.4
2018-Nov-20 12:09 27.8
2018-Nov-20 11:09 25.0
2018-Nov-20 10:09 25.0